[[{"header":{"parameterUnit":"m.s-1","parameterCategory":1,"la1":30.2991,"la2":30.254,"lo1":-89.0895,"lo2":-89.0444,"dy":0.0017,"dx":0.0017,"nx":28,"ny":28,"refTime":"2024-07-15T03:00:00:Z","depth":0,"parameterNumber":2,"parameterNumberName":"U-component_of_WINDS"},"data":[0,0,0,0,0,0,0,0,0,0,0,0,0,0,0,0,0,0,0,0,0,0,0,0,0,0,0,0,0,0,0,0,0,0,0,0,0,0,0,0,0,0,0,0,0,0,0,0,0,0,0,0,0,0,0,0,0,0,1.5939,1.594,0,1.6046,1.6048,1.6049,1.6068,1.6067,1.6066,1.6065,1.6176,1.618,1.6183,0,0,0,0,0,0,0,0,0,0,0,0,0,1.5748,1.5752,1.5939,1.594,1.5941,1.6046,1.6048,1.6049,1.6068,1.6067,1.6066,1.6065,1.6175,1.6179,1.6184,0,0,0,0,0,0,0,0,0,0,0,0,0,1.5841,1.5753,1.5938,1.5963,1.5967,1.6046,1.6048,1.6049,1.6068,1.6067,1.6065,1.6064,1.6173,1.6179,1.6184,1.6246,0,0,1.6202,1.6204,0,0,0,0,0,0,0,0,1.5836,1.5848,1.5958,1.5962,1.5966,1.6042,1.6021,1.6116,1.6068,1.603,1.6065,1.6063,1.6133,1.6141,1.6165,1.6252,1.6256,1.6202,1.6206,1.6208,1.621,0,0,0,0,0,0,0,1.5829,1.5843,1.5981,1.596,1.5964,1.5969,1.598,1.6039,1.6087,1.6033,1.6035,1.6047,1.6134,1.6159,1.6167,1.6258,1.6202,1.6207,1.6211,1.6213,1.6399,1.64,0,0,0,0,0,0,1.5818,1.5838,1.5978,1.5984,1.5896,1.5973,1.5986,1.6019,1.6087,1.6096,1.6048,1.6047,1.615,1.6161,1.6171,1.6247,1.6208,1.6213,1.6217,1.6397,1.6399,1.6401,0,0,0,0,0,0,1.5814,1.5831,1.5974,1.5912,1.593,1.5978,1.6014,1.6022,1.6047,1.6098,1.6107,1.6065,1.6149,1.6163,1.6227,1.6251,1.6216,1.6221,1.6395,1.6398,1.64,1.6399,0,0,0,0,0,0,1.5809,1.5829,1.5854,1.5912,1.5933,1.6028,1.6016,1.6025,1.6056,1.6057,1.6116,1.6125,1.6149,1.6218,1.6233,1.6258,1.6226,1.6393,1.6396,1.6399,1.6397,1.6401,1.6405,0,0,0,0,0,1.5802,1.585,1.5855,1.5872,1.5965,1.6029,1.6041,1.6069,1.6058,1.6083,1.6115,1.6123,1.6246,1.6225,1.6241,1.6269,1.6392,1.6395,1.6399,1.6396,1.6401,1.6405,0,0,0,0,0,0,1.5794,1.5858,1.5864,1.5933,1.5975,1.6032,1.6064,1.6073,1.612,1.6118,1.615,1.6164,1.6225,1.6253,1.6228,1.6331,1.6318,1.6325,1.631,1.6315,1.6319,1.6311,1.623,0,0,0,0,0,1.58,1.5847,1.59,1.5955,1.5976,1.6016,1.6045,1.6063,1.6108,1.6126,1.6164,1.6207,1.6256,1.6287,1.6335,1.6401,1.6414,1.6428,1.6432,1.6435,1.644,1.6475,1.6482,1.6412,1.6412,1.6412,0,0,1.5813,1.5854,1.5882,1.5955,1.599,1.6037,1.6032,1.6082,1.6117,1.6134,1.6196,1.6225,1.6275,1.634,1.6371,1.6366,1.6462,1.6439,1.6441,1.6445,1.6479,1.6486,1.6492,1.6414,1.6414,1.6413,0,0,1.5861,1.5897,1.5946,1.5981,1.6034,1.606,1.6071,1.6127,1.6146,1.6208,1.6221,1.6263,1.6347,1.6381,1.641,1.6469,1.6476,1.6483,1.6502,1.6536,1.6542,1.6547,1.6566,1.6573,1.6488,1.6488,1.6489,0,1.5871,1.5943,1.5971,1.602,1.6051,1.6067,1.6116,1.6149,1.6214,1.6235,1.6228,1.6331,1.6367,1.6439,1.6453,1.6476,1.6489,1.6477,1.6538,1.6544,1.6549,1.6568,1.6575,1.6489,1.6489,1.6489,1.6489,0,1.5952,1.6001,1.6034,1.6096,1.6131,1.618,1.6214,1.6246,1.6259,1.6285,1.6348,1.639,1.6446,1.6464,1.6479,1.6538,1.6533,1.6532,1.652,1.6555,1.6574,1.6581,1.6489,1.6489,1.6489,1.6489,0,0,1.5999,1.6074,1.6085,1.6113,1.6171,1.6209,1.6258,1.6312,1.6337,1.6382,1.6423,1.6491,1.649,1.6523,1.6541,1.6571,1.6612,1.6566,1.6567,1.6572,1.6678,1.6677,1.6685,1.6617,1.6619,1.662,1.6673,0,1.6053,1.6141,1.6166,1.624,1.6285,1.63,1.6342,1.6382,1.6407,1.6449,1.6477,1.6524,1.652,1.6539,1.6569,1.66,1.6633,1.6597,1.6655,1.6657,1.6641,1.6695,1.6696,1.6744,1.668,1.6682,1.6682,0,1.6128,1.6172,1.625,1.6301,1.632,1.6358,1.6408,1.6448,1.6492,1.6509,1.6543,1.6558,1.6609,1.6594,1.6663,1.6637,1.6662,1.6681,1.6683,1.6689,1.6671,1.6702,1.676,1.6767,1.6694,1.6693,1.6692,0,1.6153,1.6232,1.6288,1.6312,1.6372,1.6398,1.6424,1.6468,1.6497,1.6541,1.656,1.6609,1.6636,1.6673,1.67,1.6687,1.6766,1.6754,1.678,1.678,1.6797,1.6795,1.6859,1.6814,1.6814,1.6813,1.6813,0,1.621,1.6257,1.63,1.6335,1.6387,1.6415,1.6466,1.6493,1.6531,1.657,1.6587,1.6623,1.6657,1.6698,1.6719,1.6772,1.6785,1.6798,1.6803,1.6797,1.6795,1.6813,1.681,1.6815,1.6815,1.6815,1.6814,0,1.6247,1.6278,1.634,1.6392,1.6405,1.6442,1.6485,1.6519,1.6544,1.6594,1.6607,1.6646,1.6695,1.6726,1.6788,1.6802,1.686,1.6864,1.6844,1.6847,1.6871,1.6868,1.6948,1.6959,1.6908,1.6908,1.6908,0,1.6281,1.6317,1.6372,1.6399,1.6426,1.647,1.65,1.6528,1.6559,1.6611,1.6638,1.6687,1.6728,1.6805,1.6839,1.6886,1.6891,1.6916,1.6898,1.6889,1.689,1.6887,1.689,1.6919,1.6919,1.6919,1.692,0,1.6338,1.6351,1.6394,1.6441,1.6477,1.6516,1.6555,1.6576,1.6611,1.6644,1.6693,1.6725,1.6787,1.6836,1.6885,1.6911,1.6921,1.6925,1.6933,1.6926,1.6913,1.6919,1.6851,1.6923,1.6923,1.6922,1.6922,1.6922,1.6374,1.6406,1.6449,1.6495,1.6527,1.6563,1.6596,1.6625,1.6667,1.6719,1.6733,1.6785,1.6826,1.6894,1.6921,1.6961,1.6957,1.697,1.6973,1.6975,1.6975,1.6907,1.697,1.697,1.697,1.697,1.697,0,1.643,1.6458,1.6501,1.6554,1.659,1.6596,1.6638,1.6668,1.6713,1.6751,1.679,1.6846,1.6892,1.6929,1.6976,1.7001,1.7006,1.7012,1.7011,1.7016,1.6976,1.6963,1.7007,1.7007,1.7007,1.7007,1.7007,1.7007,1.6464,1.6518,1.6536,1.6605,1.6633,1.6683,1.6706,1.6738,1.6769,1.683,1.6868,1.6892,1.6929,1.6979,1.7021,1.703,1.7046,1.7051,1.7062,1.7023,1.7019,1.7015,1.7003,1.7055,1.7055,1.7098,1.7099,1.7099]},{"header":{"parameterUnit":"m.s-1","parameterCategory":1,"la1":30.2991,"la2":30.254,"lo1":-89.0895,"lo2":-89.0444,"dy":0.0017,"dx":0.0017,"nx":28,"ny":28,"refTime":"2024-07-15T03:00:00:Z","depth":0,"parameterNumber":3,"parameterNumberName":"V-component_of_WINDS"},"data":[0,0,0,0,0,0,0,0,0,0,0,0,0,0,0,0,0,0,0,0,0,0,0,0,0,0,0,0,0,0,0,0,0,0,0,0,0,0,0,0,0,0,0,0,0,0,0,0,0,0,0,0,0,0,0,0,0,0,4.2495,4.2494,0,4.243,4.2429,4.2429,4.2411,4.2411,4.2411,4.2412,4.2339,4.2337,4.2335,0,0,0,0,0,0,0,0,0,0,0,0,0,4.2595,4.2593,4.2495,4.2494,4.2493,4.243,4.2429,4.2428,4.2411,4.2411,4.2412,4.2412,4.234,4.2337,4.2334,0,0,0,0,0,0,0,0,0,0,0,0,0,4.2543,4.2593,4.2495,4.2477,4.2474,4.243,4.2429,4.2428,4.241,4.2411,4.2412,4.2412,4.2341,4.2337,4.2334,4.2301,0,0,4.2324,4.2322,0,0,0,0,0,0,0,0,4.2546,4.2539,4.248,4.2478,4.2475,4.2429,4.2438,4.2385,4.241,4.2435,4.2412,4.2412,4.2368,4.2363,4.2349,4.2298,4.2295,4.2323,4.2321,4.232,4.2319,0,0,0,0,0,0,0,4.2549,4.2542,4.2469,4.2479,4.2476,4.2469,4.2463,4.2428,4.2399,4.2432,4.2431,4.2424,4.2367,4.2352,4.2347,4.2294,4.2323,4.232,4.2318,4.2317,4.221,4.2209,0,0,0,0,0,0,4.2557,4.2545,4.2471,4.2467,4.2513,4.2467,4.246,4.2443,4.2399,4.2393,4.2424,4.2423,4.2358,4.2351,4.2345,4.2302,4.232,4.2317,4.2315,4.2211,4.221,4.2209,0,0,0,0,0,0,4.2559,4.2551,4.2474,4.2506,4.2495,4.2465,4.2447,4.2442,4.2427,4.2393,4.2386,4.2415,4.2358,4.2349,4.2312,4.2299,4.2315,4.2312,4.2212,4.2211,4.221,4.2217,0,0,0,0,0,0,4.2562,4.2552,4.2541,4.2506,4.2494,4.2445,4.2446,4.244,4.2422,4.2421,4.2382,4.2376,4.2358,4.2317,4.2309,4.2295,4.2309,4.2213,4.2211,4.221,4.2218,4.2216,4.2215,0,0,0,0,0,4.2566,4.2544,4.254,4.2531,4.248,4.2444,4.2437,4.2418,4.2421,4.2409,4.2386,4.2378,4.2302,4.2314,4.2304,4.2289,4.2213,4.2212,4.221,4.2219,4.2217,4.2215,0,0,0,0,0,0,4.2577,4.254,4.2534,4.2502,4.2476,4.2441,4.2425,4.2417,4.2388,4.2389,4.2364,4.2355,4.2319,4.23,4.2314,4.2253,4.2257,4.2254,4.2267,4.2265,4.2264,4.2268,4.2306,0,0,0,0,0,4.2576,4.2552,4.252,4.2494,4.2482,4.2455,4.2439,4.2427,4.2399,4.2387,4.2362,4.2333,4.2303,4.2283,4.2253,4.2215,4.2205,4.22,4.2198,4.2197,4.2194,4.217,4.2166,4.2203,4.2203,4.2203,0,0,4.2572,4.2549,4.2535,4.2495,4.2474,4.2448,4.2446,4.2419,4.2398,4.2382,4.2346,4.2326,4.2292,4.2254,4.2236,4.2237,4.2181,4.2195,4.2195,4.2191,4.2168,4.2164,4.2161,4.2202,4.2202,4.2203,0,0,4.2553,4.2534,4.251,4.2489,4.2458,4.244,4.2434,4.24,4.2387,4.2351,4.2338,4.2311,4.226,4.2236,4.2217,4.2187,4.2177,4.2178,4.217,4.2147,4.2144,4.2141,4.2129,4.2125,4.2175,4.2175,4.2175,0,4.2552,4.2514,4.2497,4.247,4.2452,4.2438,4.2411,4.2391,4.2351,4.2337,4.234,4.2274,4.225,4.2206,4.2198,4.2184,4.2174,4.2182,4.2146,4.2143,4.2141,4.2128,4.2124,4.2175,4.2175,4.2175,4.2175,0,4.2514,4.2488,4.2471,4.2435,4.2414,4.2388,4.2364,4.2345,4.2334,4.2316,4.2277,4.2248,4.2212,4.22,4.2189,4.2153,4.2154,4.2152,4.2155,4.2138,4.2125,4.2121,4.2175,4.2175,4.2175,4.2175,0,0,4.2499,4.2454,4.2448,4.243,4.2395,4.2373,4.2344,4.231,4.2293,4.2266,4.2239,4.2196,4.2193,4.2172,4.2157,4.2137,4.2113,4.2137,4.2135,4.2132,4.2069,4.207,4.2065,4.2107,4.2106,4.2105,4.2071,0,4.2474,4.2425,4.2409,4.2367,4.2341,4.2327,4.2302,4.2276,4.2257,4.223,4.2209,4.2178,4.2178,4.2165,4.2145,4.212,4.21,4.2123,4.2079,4.2078,4.2087,4.2059,4.206,4.2029,4.2066,4.2066,4.2065,0,4.2438,4.2412,4.2369,4.2335,4.2323,4.2301,4.2268,4.2243,4.2212,4.22,4.2176,4.2162,4.2129,4.2135,4.2087,4.2103,4.2084,4.207,4.2068,4.2062,4.2069,4.205,4.2019,4.2014,4.2058,4.2058,4.2059,0,4.243,4.2383,4.2351,4.2337,4.2297,4.2281,4.2264,4.2234,4.2214,4.2184,4.217,4.2136,4.2116,4.2089,4.2066,4.2073,4.2019,4.2024,4.2005,4.2006,4.1994,4.1994,4.1958,4.1984,4.1984,4.1984,4.1985,0,4.2403,4.2376,4.2347,4.2326,4.2295,4.2275,4.2244,4.2225,4.2198,4.2172,4.2157,4.2132,4.2104,4.2074,4.2056,4.2017,4.2009,4.1996,4.1991,4.1997,4.1998,4.1983,4.1984,4.1983,4.1983,4.1984,4.1984,0,4.2388,4.2367,4.2331,4.2296,4.2287,4.2265,4.2235,4.2213,4.2194,4.2161,4.2152,4.2121,4.2086,4.206,4.2014,4.2001,4.1959,4.1955,4.1971,4.1968,4.195,4.1951,4.1901,4.1892,4.1926,4.1926,4.1926,0,4.2371,4.2351,4.2314,4.2297,4.228,4.2252,4.2232,4.221,4.2189,4.2152,4.2134,4.2098,4.2068,4.2011,4.1983,4.1947,4.1941,4.1925,4.1935,4.194,4.1938,4.1939,4.1935,4.1923,4.1923,4.1923,4.1923,0,4.2343,4.2334,4.2307,4.2276,4.2253,4.2227,4.2201,4.2186,4.2159,4.2136,4.2101,4.2078,4.2031,4.1994,4.1955,4.1934,4.1923,4.192,4.1914,4.1918,4.1927,4.192,4.1965,4.1921,4.1921,4.1921,4.1922,4.1922,4.2325,4.2306,4.2277,4.2247,4.2225,4.2201,4.2178,4.2157,4.2128,4.209,4.2078,4.2041,4.2008,4.1955,4.1933,4.1901,4.1901,4.1893,4.189,4.1887,4.1887,4.1934,4.1894,4.1894,4.1894,4.1894,4.1894,0,4.2295,4.2276,4.2249,4.2213,4.2188,4.2183,4.2153,4.2132,4.21,4.2072,4.2043,4.2,4.1965,4.1934,4.1896,4.1876,4.187,4.1867,4.1867,4.1862,4.189,4.1898,4.1872,4.1872,4.1872,4.1872,4.1872,4.1872,4.2276,4.2243,4.223,4.2184,4.2164,4.2129,4.2112,4.2088,4.2065,4.202,4.1991,4.1972,4.1941,4.1901,4.1866,4.1858,4.1843,4.1841,4.1831,4.1857,4.186,4.1862,4.187,4.1839,4.1839,4.1805,4.1805,4.1805]}]]